STARLINK-32580, 62075

Orbit data source: Space-Track

STARLINK-32580, 62075 is a payload satellite owned by SpaceX/Seattle (US) in LEO that was launched on Sun, 24 Nov 2024 UTC via an FALCON 9 launch vehicle from the Air Force Western Test Range (AFWTR). Payload-class satellites include a variety of spacecraft equipped with specific instruments for various scientific and technological missions. These include communications satellites like Starlink; space stations such as the ISS; scientific satellites like the Hubble; Earth observation satellites from companies like Planet Labs, Umbra, and HawkEye 360; GPS; miniature CubeSats for education and research; and military/defense satellites.

Loading next visibility...
Identifier
62075, 2024-217U
Orbit
LEO
Country
Flag of USUS
Related business
Manufacturer
SpaceX/Seattle
Mission
Operational Commercial Communications
Bus & Motor
STARLINK V2M, Unknown motor
Mass
730 kg wet, ~700 kg dry
Launch date (UTC)
2024-11-24 (1 year ago)
Launch vehicle
FALCON 9
Launch site
Air Force Western Test Range (AFWTR)
Object type
Payload
Rocket body
Debris
Shape & HBR
Box + 2 Pan, 17.7 m
Radar Cross Section
33.884 m², Large (>1 m²)

Expand to show TLE details & history
Last TLE update: 12 hours ago

TLE from 12 hours ago
0 STARLINK-32580
1 62075U 24217U   26095.17363757  .00041413  00000-0  14037-2 0  9997
2 62075  53.1601  58.2742 0001350  89.1511 270.9644 15.30174238 77651
Epoch: 2026-04-05T04:10Z
TLE epoch observation values (Epoch: 2026-04-05T04:10:02.286Z)
Latitude
-0.00003°
Longitude
162.28179°
Altitude
476.176 km
Speed
7.629 km/s
True Right ascension
03h 53m 05s
True Declination
0° 00' 00"
Sunlit
Object was in daylight at epoch
Visualization orbit readout
Latitude
Unknown
Longitude
Unknown
Altitude
Unknown
Speed
Unknown
Apparent Right ascension
Unknown
Apparent Declination
Unknown
Sunlit
N/A
Visualization observer readout
Local Sidereal Time
21:53:43
Azimuth
Unknown
Elevation
Unknown
Doppler factor
Unknown
Orbital elements
Apogee altitude
476.474 km
Perigee altitude
474.623 km
Semi-major axis
6,853.685 km
Eccentricity
0.00014
Inclination
53.1601°
RAAN
58.2742°
Arg. of periapsis
89.1511°
True anomaly
270.94893°
Mean anomaly
270.9644°
Eccentric anomaly
270.95667°
Mean motion
3.82522 °/min
Orbital period
94.11 mins
BSTAR
0.0014037
Loading maneuver chart data...
Computing Atmospheric mass density...
Loading historical data...
Loading historical data...
Loading historical data...
Loading historical data...
Loading historical data...
Loading historical data...
Loading historical data...

Documentation

Showing up to 5 results
|